Location: Sternwarte ZA, Rosenfeld-Brittheim
(48.2889°N, 8.6789°E)
Time: 06:15:14
(UTC+02:00)

ISS - Pass Details

Date: 12 July 2018
Orbit: 402 x 408 km, 51.6° (Epoch: 21 July)

Event Time Altitude Azimuth Distance (km) Brightness Sun altitude
Exits shadow 04:21:17 - 272° (W) 1,909 -0.8 -10.1°
Reaches altitude 10° 04:22:23 10° 276° (W) 1,471 -1.3 -9.9°
Maximum altitude 04:25:36 48° 352° (N) 545 -2.9 -9.6°
Drops below altitude 10° 04:28:49 10° 69° (ENE) 1,475 0.1 -9.3°
Sets 04:30:57 0° 75° (ENE) 2,337 1.1 -9.0°
